START_TIME,STEP,MOV.,H8,t_acc.,H43,t_acc.,M25,t_acc.,H9,t_acc.
1979-07-14 21:00:29.760 ,0,0,0.,12.0,0.,12.0,0.,12.0,0.,12.0
1979-07-14 21:00:41.760 ,0,0,0.,12.0,0.,12.0,0.,12.0,0.,12.0
1979-07-14 21:00:53.760 ,0,0,0.,12.0,0.,12.0,0.,12.0,0.,12.0
1979-07-14 21:01:05.760 ,0,0,0.,12.0,0.,12.0,0.,12.0,0.,12.0
1979-07-14 21:01:17.760 ,0,0,0.,12.0,0.,12.0,0.,12.0,0.,12.0
1979-07-14 21:01:29.760 ,0,0,0.,12.0,0.,12.0,0.,12.0,0.,12.0
1979-07-14 21:01:41.760 ,1,0,0.,12.0,0.,12.0,0.,12.0,0.,12.0
1979-07-14 21:01:53.760 ,1,0,0.,12.0,0.,12.0,0.,12.0,0.,12.0
1979-07-14 21:02:05.760 ,1,0,0.,12.0,0.,12.0,0.,12.0,0.,12.0
1979-07-14 21:02:17.760 ,1,0,0.,12.0,0.,12.0,0.,12.0,0.,12.0
1979-07-14 21:02:29.760 ,2,0,0.,12.0,0.,12.0,0.,12.0,0.,12.0
1979-07-14 21:02:41.760 ,2,0,0.,12.0,0.,12.0,0.,12.0,0.,12.0
1979-07-14 21:02:53.760 ,2,0,0.,12.0,0.,12.0,0.,12.0,0.,12.0
1979-07-14 21:03:05.760 ,2,0,0.,12.0,0.,12.0,0.,12.0,0.,12.0
1979-07-14 21:03:17.760 ,3,0,0.,12.0,0.,12.0,0.,12.0,0.,12.0
1979-07-14 21:03:29.760 ,3,0,0.,12.0,0.,12.0,0.,12.0,0.,12.0
1979-07-14 21:03:41.760 ,3,0,0.,12.0,0.,12.0,0.,12.0,0.,12.0
1979-07-14 21:03:53.760 ,3,0,0.,12.0,0.,12.0,0.,12.0,0.,12.0
1979-07-14 21:04:05.760 ,4,0,0.,12.0,0.,12.0,0.,12.0,0.,12.0
1979-07-14 21:04:17.760 ,4,0,0.,12.0,0.,12.0,0.,12.0,0.,12.0
1979-07-14 21:04:29.760 ,4,0,0.,12.0,0.,12.0,0.,12.0,0.,12.0
1979-07-14 21:04:41.760 ,4,0,0.,12.0,0.,12.0,0.,12.0,0.,12.0
1979-07-14 21:04:53.760 ,5,0,0.,12.0,0.,12.0,0.,12.0,0.,12.0
1979-07-14 21:05:05.760 ,5,0,1.,12.0,0.,12.0,0.,12.0,0.,12.0
1979-07-14 21:05:17.760 ,5,0,0.,12.0,0.,12.0,0.,12.0,0.,12.0
1979-07-14 21:05:29.760 ,5,0,0.,12.0,0.,12.0,0.,12.0,0.,12.0
1979-07-14 21:05:41.760 ,6,0,0.,12.0,0.,12.0,0.,12.0,0.,12.0
1979-07-14 21:05:53.760 ,6,0,1.,12.0,0.,12.0,0.,12.0,0.,12.0
1979-07-14 21:06:05.760 ,6,0,0.,12.0,0.,12.0,0.,12.0,0.,12.0
1979-07-14 21:06:17.760 ,6,0,0.,12.0,0.,12.0,0.,12.0,0.,12.0
1979-07-14 21:06:29.760 ,7,0,0.,12.0,0.,12.0,0.,12.0,0.,12.0
1979-07-14 21:06:41.760 ,7,0,0.,12.0,0.,12.0,0.,12.0,0.,12.0
1979-07-14 21:06:53.760 ,7,0,0.,12.0,0.,12.0,0.,12.0,0.,12.0
1979-07-14 21:07:05.760 ,7,0,0.,12.0,0.,12.0,0.,12.0,0.,12.0
1979-07-14 21:07:17.760 ,3,1,0.,12.0,0.,12.0,0.,12.0,0.,12.0
1979-07-14 21:07:29.760 ,3,1,0.,12.0,0.,12.0,0.,12.0,0.,12.0
1979-07-14 21:07:41.760 ,0,1,0.,12.0,0.,12.0,0.,12.0,0.,12.0
1979-07-14 21:07:53.760 ,0,1,0.,12.0,0.,12.0,0.,12.0,0.,12.0
1979-07-14 21:08:05.760 ,4,1,0.,12.0,0.,12.0,0.,12.0,0.,12.0
1979-07-14 21:08:17.760 ,4,1,0.,12.0,0.,12.0,0.,12.0,0.,12.0
1979-07-14 21:08:29.760 ,7,1,0.,12.0,0.,12.0,0.,12.0,0.,12.0
1979-07-14 21:08:41.760 ,7,1,0.,12.0,0.,12.0,0.,12.0,0.,12.0
1979-07-14 21:08:53.760 ,3,1,0.,12.0,0.,12.0,0.,12.0,0.,12.0
1979-07-14 21:09:05.760 ,3,1,0.,12.0,0.,12.0,0.,12.0,0.,12.0
1979-07-14 21:09:17.760 ,0,1,0.,12.0,0.,12.0,0.,12.0,0.,12.0
1979-07-14 21:09:29.760 ,0,1,0.,12.0,0.,12.0,0.,12.0,0.,12.0
1979-07-14 21:09:41.760 ,4,1,0.,12.0,0.,12.0,0.,12.0,0.,12.0
1979-07-14 21:09:53.760 ,4,1,0.,12.0,0.,12.0,0.,12.0,0.,12.0
1979-07-14 21:10:05.760 ,7,1,0.,12.0,0.,12.0,0.,12.0,0.,12.0
1979-07-14 21:10:17.760 ,7,1,0.,12.0,0.,12.0,0.,12.0,0.,12.0
1979-07-14 21:10:29.760 ,3,1,0.,12.0,0.,12.0,0.,12.0,0.,12.0
1979-07-14 21:10:41.760 ,3,1,1.,12.0,0.,12.0,0.,12.0,0.,12.0
1979-07-14 21:10:53.760 ,0,1,0.,12.0,0.,12.0,0.,12.0,0.,12.0
1979-07-14 21:11:05.760 ,0,1,0.,12.0,0.,12.0,0.,12.0,0.,12.0
1979-07-14 21:11:17.760 ,4,1,0.,12.0,0.,12.0,0.,12.0,0.,12.0
1979-07-14 21:11:29.760 ,4,1,0.,12.0,0.,12.0,0.,12.0,0.,12.0
1979-07-14 21:11:41.760 ,7,1,0.,12.0,0.,12.0,0.,12.0,0.,12.0
1979-07-14 21:11:53.760 ,7,1,1.,12.0,0.,12.0,0.,12.0,0.,12.0
1979-07-14 21:12:05.760 ,3,1,0.,12.0,0.,12.0,0.,12.0,0.,12.0
1979-07-14 21:12:17.760 ,3,1,0.,12.0,0.,12.0,0.,12.0,0.,12.0
1979-07-14 21:12:29.760 ,0,1,0.,12.0,0.,12.0,0.,12.0,0.,12.0
1979-07-14 21:12:41.760 ,0,1,0.,12.0,0.,12.0,0.,12.0,0.,12.0
1979-07-14 21:13:41.760 ,0,0,0.,12.0,0.,12.0,0.,12.0,0.,12.0
1979-07-14 21:13:53.760 ,0,0,0.,12.0,0.,12.0,0.,12.0,0.,12.0
1979-07-14 21:14:05.760 ,0,1,0.,12.0,0.,12.0,0.,12.0,0.,12.0
1979-07-14 21:14:17.760 ,0,1,0.,12.0,0.,12.0,0.,12.0,0.,12.0
1979-07-14 21:14:29.760 ,4,1,0.,12.0,0.,12.0,0.,12.0,0.,12.0
1979-07-14 21:14:41.760 ,4,1,0.,12.0,0.,12.0,0.,12.0,0.,12.0
1979-07-14 21:14:53.760 ,7,1,0.,12.0,0.,12.0,0.,12.0,0.,12.0
1979-07-14 21:15:05.760 ,7,1,0.,12.0,0.,12.0,0.,12.0,0.,12.0
1979-07-14 21:15:17.760 ,3,1,0.,12.0,0.,12.0,0.,12.0,0.,12.0
1979-07-14 21:15:29.760 ,3,1,0.,12.0,0.,12.0,0.,12.0,0.,12.0
1979-07-14 21:15:41.760 ,0,1,0.,12.0,0.,12.0,0.,12.0,0.,12.0
1979-07-14 21:15:53.760 ,0,1,0.,12.0,0.,12.0,0.,12.0,0.,12.0
1979-07-14 21:16:05.760 ,4,1,0.,12.0,0.,12.0,0.,12.0,0.,12.0
1979-07-14 21:16:17.760 ,4,1,0.,12.0,0.,12.0,0.,12.0,0.,12.0
1979-07-14 21:16:29.760 ,7,1,0.,12.0,0.,12.0,0.,12.0,0.,12.0
1979-07-14 21:16:41.760 ,7,1,0.,12.0,0.,12.0,0.,12.0,0.,12.0
1979-07-14 21:16:53.760 ,3,1,0.,12.0,0.,12.0,0.,12.0,0.,12.0
1979-07-14 21:17:05.760 ,3,1,0.,12.0,0.,12.0,0.,12.0,0.,12.0
1979-07-14 21:17:17.760 ,0,1,0.,12.0,0.,12.0,0.,12.0,0.,12.0
1979-07-14 21:17:29.760 ,0,1,0.,12.0,0.,12.0,0.,12.0,0.,12.0
1979-07-14 21:17:41.760 ,0,0,0.,12.0,0.,12.0,0.,12.0,0.,12.0
1979-07-14 21:17:53.760 ,0,0,1.,12.0,0.,12.0,0.,12.0,0.,12.0
1979-07-14 21:18:05.760 ,0,0,0.,12.0,0.,12.0,0.,12.0,0.,12.0
1979-07-14 21:18:17.760 ,0,0,0.,12.0,0.,12.0,0.,12.0,0.,12.0
1979-07-14 21:18:29.760 ,5,0,0.,12.0,0.,12.0,0.,12.0,0.,12.0
1979-07-14 21:18:41.760 ,5,0,0.,12.0,0.,12.0,0.,12.0,0.,12.0
1979-07-14 21:18:53.760 ,5,0,0.,12.0,0.,12.0,0.,12.0,0.,12.0
1979-07-14 21:19:05.760 ,5,0,0.,12.0,0.,12.0,0.,12.0,0.,12.0
1979-07-14 21:19:17.760 ,4,0,0.,12.0,0.,12.0,0.,12.0,0.,12.0
1979-07-14 21:19:29.760 ,4,0,0.,12.0,0.,12.0,0.,12.0,0.,12.0
1979-07-14 21:19:41.760 ,4,0,0.,12.0,0.,12.0,0.,12.0,0.,12.0
1979-07-14 21:19:53.760 ,4,0,0.,12.0,0.,12.0,0.,12.0,0.,12.0
1979-07-14 21:20:05.760 ,3,0,0.,12.0,0.,12.0,0.,12.0,0.,12.0
1979-07-14 21:20:17.760 ,3,0,0.,12.0,0.,12.0,0.,12.0,0.,12.0
1979-07-14 21:20:29.760 ,3,0,0.,12.0,0.,12.0,0.,12.0,0.,12.0
1979-07-14 21:20:41.760 ,3,0,0.,12.0,0.,12.0,0.,12.0,0.,12.0
1979-07-14 21:20:53.760 ,2,0,0.,12.0,0.,12.0,0.,12.0,0.,12.0
1979-07-14 21:21:05.760 ,2,0,0.,12.0,0.,12.0,0.,12.0,0.,12.0
1979-07-14 21:21:17.760 ,2,0,0.,12.0,0.,12.0,0.,12.0,0.,12.0
1979-07-14 21:21:29.760 ,2,0,0.,12.0,0.,12.0,0.,12.0,0.,12.0
1979-07-14 21:21:41.760 ,1,0,0.,12.0,0.,12.0,0.,12.0,0.,12.0
1979-07-14 21:21:53.760 ,1,0,0.,12.0,0.,12.0,0.,12.0,0.,12.0
1979-07-14 21:22:05.760 ,1,0,0.,12.0,0.,12.0,0.,12.0,0.,12.0
1979-07-14 21:22:17.760 ,1,0,0.,12.0,0.,12.0,0.,12.0,0.,12.0
1979-07-14 21:22:29.760 ,0,0,0.,12.0,0.,12.0,0.,12.0,0.,12.0
1979-07-14 21:22:41.760 ,0,0,0.,12.0,0.,12.0,0.,12.0,0.,12.0
1979-07-14 21:22:53.760 ,0,0,0.,12.0,0.,12.0,0.,12.0,0.,12.0
1979-07-14 21:23:05.760 ,0,0,0.,12.0,0.,12.0,0.,12.0,0.,12.0
1979-07-14 21:23:17.760 ,0,0,0.,12.0,0.,12.0,0.,12.0,0.,12.0
1979-07-14 21:23:29.760 ,0,0,0.,12.0,0.,12.0,0.,12.0,0.,12.0
1979-07-14 21:23:41.760 ,0,0,0.,12.0,0.,12.0,0.,12.0,0.,12.0
1979-07-14 21:23:53.760 ,0,0,0.,12.0,0.,12.0,0.,12.0,0.,12.0
1979-07-14 21:24:05.760 ,1,0,0.,12.0,0.,12.0,0.,12.0,0.,12.0
1979-07-14 21:24:17.760 ,1,0,0.,12.0,0.,12.0,0.,12.0,0.,12.0
1979-07-14 21:24:29.760 ,1,0,0.,12.0,0.,12.0,0.,12.0,0.,12.0
1979-07-14 21:24:41.760 ,1,0,0.,12.0,0.,12.0,0.,12.0,0.,12.0
1979-07-14 21:24:53.760 ,2,0,0.,12.0,0.,12.0,0.,12.0,0.,12.0
1979-07-14 21:25:05.760 ,2,0,0.,12.0,0.,12.0,0.,12.0,0.,12.0
1979-07-14 21:25:17.760 ,2,0,0.,12.0,0.,12.0,0.,12.0,0.,12.0
1979-07-14 21:25:29.760 ,2,0,0.,12.0,0.,12.0,0.,12.0,0.,12.0
1979-07-14 21:25:41.760 ,3,0,0.,12.0,0.,12.0,0.,12.0,0.,12.0
1979-07-14 21:25:53.760 ,3,0,0.,12.0,0.,12.0,0.,12.0,0.,12.0
1979-07-14 21:26:05.760 ,3,0,0.,12.0,0.,12.0,0.,12.0,0.,12.0
1979-07-14 21:26:17.760 ,3,0,0.,12.0,0.,12.0,0.,12.0,0.,12.0
1979-07-14 21:26:29.760 ,4,0,0.,12.0,0.,12.0,0.,12.0,0.,12.0
1979-07-14 21:26:41.760 ,4,0,0.,12.0,0.,12.0,0.,12.0,0.,12.0
1979-07-14 21:26:53.760 ,4,0,0.,12.0,0.,12.0,0.,12.0,0.,12.0
1979-07-14 21:27:05.760 ,4,0,0.,12.0,0.,12.0,0.,12.0,0.,12.0
1979-07-14 21:27:17.760 ,5,0,0.,12.0,0.,12.0,0.,12.0,0.,12.0
1979-07-14 21:27:29.760 ,5,0,0.,12.0,0.,12.0,0.,12.0,0.,12.0
1979-07-14 21:27:41.760 ,5,0,0.,12.0,0.,12.0,0.,12.0,0.,12.0
1979-07-14 21:27:53.760 ,5,0,0.,12.0,0.,12.0,0.,12.0,0.,12.0
1979-07-14 21:28:05.760 ,6,0,0.,12.0,0.,12.0,0.,12.0,0.,12.0
1979-07-14 21:28:17.760 ,6,0,0.,12.0,0.,12.0,0.,12.0,0.,12.0
1979-07-14 21:28:29.760 ,6,0,0.,12.0,0.,12.0,0.,12.0,0.,12.0
1979-07-14 21:28:41.760 ,6,0,0.,12.0,0.,12.0,0.,12.0,0.,12.0
1979-07-14 21:28:53.760 ,7,0,0.,12.0,0.,12.0,0.,12.0,0.,12.0
1979-07-14 21:29:05.760 ,7,0,0.,12.0,0.,12.0,0.,12.0,0.,12.0
1979-07-14 21:29:17.760 ,7,0,0.,12.0,0.,12.0,0.,12.0,0.,12.0
1979-07-14 21:29:29.760 ,7,0,0.,12.0,0.,12.0,0.,12.0,0.,12.0
1979-07-14 21:29:41.760 ,7,0,0.,12.0,0.,12.0,0.,12.0,0.,12.0
1979-07-14 21:29:53.760 ,7,0,0.,12.0,0.,12.0,0.,12.0,0.,12.0
1979-07-14 21:30:05.760 ,7,0,0.,12.0,0.,12.0,0.,12.0,0.,12.0
1979-07-14 21:30:17.760 ,7,0,0.,12.0,0.,12.0,0.,12.0,0.,12.0
1979-07-14 21:31:17.760 ,0,0,0.,12.0,0.,12.0,0.,12.0,0.,12.0
1979-07-14 21:31:29.760 ,0,0,1.,12.0,0.,12.0,0.,12.0,0.,12.0
1979-07-14 21:31:41.760 ,0,0,0.,12.0,0.,12.0,0.,12.0,0.,12.0
1979-07-14 21:31:53.760 ,0,0,0.,12.0,0.,12.0,0.,12.0,0.,12.0
1979-07-14 21:32:05.760 ,4,0,0.,12.0,0.,12.0,0.,12.0,0.,12.0
1979-07-14 21:32:17.760 ,4,0,0.,12.0,0.,12.0,0.,12.0,0.,12.0
1979-07-14 21:32:29.760 ,4,0,0.,12.0,0.,12.0,0.,12.0,0.,12.0
1979-07-14 21:32:41.760 ,4,0,0.,12.0,0.,12.0,0.,12.0,0.,12.0
1979-07-14 21:32:53.760 ,3,0,0.,12.0,0.,12.0,0.,12.0,0.,12.0
1979-07-14 21:33:05.760 ,3,0,0.,12.0,0.,12.0,0.,12.0,0.,12.0
1979-07-14 21:33:17.760 ,3,0,0.,12.0,0.,12.0,0.,12.0,0.,12.0
1979-07-14 21:33:29.760 ,3,0,0.,12.0,0.,12.0,0.,12.0,0.,12.0
1979-07-14 21:33:41.760 ,2,0,0.,12.0,0.,12.0,0.,12.0,0.,12.0
1979-07-14 21:33:53.760 ,2,0,0.,12.0,0.,12.0,0.,12.0,0.,12.0
1979-07-14 21:34:05.760 ,2,0,0.,12.0,0.,12.0,0.,12.0,0.,12.0
1979-07-14 21:34:17.760 ,2,0,0.,12.0,0.,12.0,0.,12.0,0.,12.0
1979-07-14 21:34:29.750 ,1,0,0.,12.0,0.,12.0,0.,12.0,0.,12.0
1979-07-14 21:34:41.750 ,1,0,0.,12.0,0.,12.0,0.,12.0,0.,12.0
1979-07-14 21:34:53.750 ,1,0,0.,12.0,0.,12.0,0.,12.0,0.,12.0
1979-07-14 21:35:05.750 ,1,0,0.,12.0,0.,12.0,0.,12.0,0.,12.0
1979-07-14 21:35:17.750 ,0,0,0.,12.0,0.,12.0,0.,12.0,0.,12.0
1979-07-14 21:35:29.750 ,0,0,0.,12.0,0.,12.0,0.,12.0,0.,12.0
1979-07-14 21:35:41.750 ,0,0,0.,12.0,0.,12.0,0.,12.0,0.,12.0
1979-07-14 21:35:53.750 ,0,0,0.,12.0,0.,12.0,0.,12.0,0.,12.0
1979-07-14 21:36:05.750 ,0,0,0.,12.0,0.,12.0,0.,12.0,0.,12.0
1979-07-14 21:36:17.750 ,0,0,0.,12.0,0.,12.0,0.,12.0,0.,12.0
1979-07-14 21:36:29.750 ,0,0,0.,12.0,0.,12.0,0.,12.0,0.,12.0
1979-07-14 21:36:41.750 ,0,0,0.,12.0,0.,12.0,0.,12.0,0.,12.0
1979-07-14 21:36:53.750 ,1,0,0.,12.0,0.,12.0,0.,12.0,0.,12.0
1979-07-14 21:37:05.750 ,1,0,0.,12.0,0.,12.0,0.,12.0,0.,12.0
1979-07-14 21:37:17.750 ,1,0,0.,12.0,0.,12.0,0.,12.0,0.,12.0
1979-07-14 21:37:29.750 ,1,0,0.,12.0,1.,12.0,0.,12.0,0.,12.0
1979-07-14 21:37:41.750 ,2,0,0.,12.0,0.,12.0,0.,12.0,0.,12.0
1979-07-14 21:37:53.750 ,2,0,1.,12.0,0.,12.0,0.,12.0,0.,12.0
1979-07-14 21:38:05.750 ,2,0,0.,12.0,0.,12.0,0.,12.0,0.,12.0
1979-07-14 21:38:17.750 ,2,0,0.,12.0,0.,12.0,0.,12.0,0.,12.0
1979-07-14 21:38:29.750 ,3,0,0.,12.0,0.,12.0,0.,12.0,0.,12.0
1979-07-14 21:38:41.750 ,3,0,0.,12.0,0.,12.0,0.,12.0,0.,12.0
1979-07-14 21:38:53.750 ,3,0,0.,12.0,0.,12.0,0.,12.0,0.,12.0
1979-07-14 21:39:05.750 ,3,0,0.,12.0,0.,12.0,0.,12.0,0.,12.0
1979-07-14 21:39:17.750 ,4,0,0.,12.0,0.,12.0,0.,12.0,0.,12.0
1979-07-14 21:39:29.750 ,4,0,0.,12.0,0.,12.0,0.,12.0,0.,12.0
1979-07-14 21:39:41.750 ,4,0,0.,12.0,0.,12.0,0.,12.0,0.,12.0
1979-07-14 21:39:53.750 ,4,0,0.,12.0,0.,12.0,0.,12.0,0.,12.0
1979-07-14 21:40:05.750 ,5,0,0.,12.0,0.,12.0,0.,12.0,0.,12.0
1979-07-14 21:40:17.750 ,5,0,0.,12.0,0.,12.0,0.,12.0,0.,12.0
1979-07-14 21:40:29.750 ,5,0,0.,12.0,0.,12.0,0.,12.0,0.,12.0
1979-07-14 21:40:41.750 ,5,0,0.,12.0,0.,12.0,0.,12.0,0.,12.0
1979-07-14 21:40:53.750 ,6,0,0.,12.0,0.,12.0,0.,12.0,0.,12.0
1979-07-14 21:41:05.750 ,6,0,0.,12.0,0.,12.0,0.,12.0,0.,12.0
1979-07-14 21:41:17.750 ,6,0,0.,12.0,0.,12.0,0.,12.0,0.,12.0
1979-07-14 21:41:29.750 ,6,0,0.,12.0,0.,12.0,0.,12.0,0.,12.0
1979-07-14 21:41:41.750 ,7,0,0.,12.0,0.,12.0,0.,12.0,0.,12.0
1979-07-14 21:41:53.750 ,7,0,0.,12.0,0.,12.0,0.,12.0,0.,12.0
1979-07-14 21:42:05.750 ,7,0,0.,12.0,0.,12.0,0.,12.0,0.,12.0
1979-07-14 21:42:17.750 ,7,0,0.,12.0,0.,12.0,0.,12.0,0.,12.0
1979-07-14 21:42:29.750 ,7,0,0.,12.0,0.,12.0,0.,12.0,0.,12.0
1979-07-14 21:42:41.750 ,7,0,0.,12.0,0.,12.0,0.,12.0,0.,12.0
1979-07-14 21:42:53.750 ,7,0,0.,12.0,0.,12.0,0.,12.0,0.,12.0
1979-07-14 21:43:05.750 ,7,0,0.,12.0,0.,12.0,0.,12.0,0.,12.0
1979-07-14 21:43:17.750 ,6,0,0.,12.0,0.,12.0,0.,12.0,0.,12.0
1979-07-14 21:43:29.750 ,6,0,0.,12.0,0.,12.0,0.,12.0,0.,12.0
1979-07-14 21:43:41.750 ,6,0,0.,12.0,0.,12.0,0.,12.0,0.,12.0
1979-07-14 21:43:53.750 ,6,0,0.,12.0,0.,12.0,0.,12.0,0.,12.0
1979-07-14 21:44:05.750 ,5,0,0.,12.0,0.,12.0,0.,12.0,0.,12.0
1979-07-14 21:44:17.750 ,5,0,1.,12.0,0.,12.0,0.,12.0,0.,12.0
1979-07-14 21:44:29.750 ,5,0,0.,12.0,0.,12.0,0.,12.0,0.,12.0
1979-07-14 21:44:41.750 ,5,0,0.,12.0,0.,12.0,0.,12.0,0.,12.0
1979-07-14 21:44:53.750 ,4,0,0.,12.0,0.,12.0,0.,12.0,0.,12.0
1979-07-14 21:45:05.750 ,4,0,0.,12.0,0.,12.0,0.,12.0,0.,12.0
1979-07-14 21:45:17.750 ,4,0,0.,12.0,0.,12.0,0.,12.0,0.,12.0
1979-07-14 21:45:29.750 ,4,0,0.,12.0,0.,12.0,0.,12.0,0.,12.0
1979-07-14 21:45:41.750 ,3,0,0.,12.0,0.,12.0,0.,12.0,0.,12.0
1979-07-14 21:45:53.750 ,3,0,0.,12.0,0.,12.0,0.,12.0,0.,12.0
1979-07-14 21:46:05.750 ,3,0,0.,12.0,0.,12.0,0.,12.0,0.,12.0
1979-07-14 21:46:17.750 ,3,0,0.,12.0,0.,12.0,0.,12.0,0.,12.0
1979-07-14 21:46:29.750 ,2,0,0.,12.0,0.,12.0,0.,12.0,0.,12.0
1979-07-14 21:46:41.750 ,2,0,0.,12.0,0.,12.0,0.,12.0,0.,12.0
1979-07-14 21:46:53.750 ,2,0,0.,12.0,0.,12.0,0.,12.0,0.,12.0
1979-07-14 21:47:05.750 ,2,0,0.,12.0,0.,12.0,0.,12.0,0.,12.0
1979-07-14 21:47:17.750 ,1,0,0.,12.0,0.,12.0,0.,12.0,0.,12.0
1979-07-14 21:47:29.750 ,1,0,0.,12.0,0.,12.0,0.,12.0,0.,12.0
1979-07-14 21:47:41.750 ,1,0,0.,12.0,0.,12.0,0.,12.0,0.,12.0
1979-07-14 21:47:53.750 ,1,0,0.,12.0,0.,12.0,0.,12.0,0.,12.0
1979-07-14 21:48:05.750 ,0,0,0.,12.0,0.,12.0,0.,12.0,0.,12.0
1979-07-14 21:48:17.750 ,0,0,0.,12.0,0.,12.0,0.,12.0,0.,12.0
1979-07-14 21:48:29.750 ,0,0,0.,12.0,0.,12.0,0.,12.0,0.,12.0
1979-07-14 21:48:41.750 ,0,0,0.,12.0,0.,12.0,0.,12.0,0.,12.0
1979-07-14 21:48:53.750 ,0,0,0.,12.0,0.,12.0,0.,12.0,0.,12.0
1979-07-14 21:49:05.750 ,0,0,0.,12.0,0.,12.0,0.,12.0,0.,12.0
1979-07-14 21:49:17.750 ,0,0,0.,12.0,0.,12.0,0.,12.0,0.,12.0
1979-07-14 21:49:29.750 ,0,0,0.,12.0,0.,12.0,0.,12.0,0.,12.0
1979-07-14 21:49:41.750 ,1,0,0.,12.0,0.,12.0,0.,12.0,0.,12.0
1979-07-14 21:49:53.750 ,1,0,0.,12.0,0.,12.0,0.,12.0,0.,12.0
1979-07-14 21:50:05.750 ,1,0,0.,12.0,0.,12.0,0.,12.0,0.,12.0
1979-07-14 21:50:17.750 ,1,0,0.,12.0,0.,12.0,0.,12.0,0.,12.0
1979-07-14 21:50:29.750 ,2,0,0.,12.0,0.,12.0,0.,12.0,0.,12.0
1979-07-14 21:50:41.750 ,2,0,0.,12.0,0.,12.0,0.,12.0,0.,12.0
1979-07-14 21:50:53.750 ,2,0,0.,12.0,0.,12.0,0.,12.0,0.,12.0
1979-07-14 21:51:05.750 ,2,0,0.,12.0,0.,12.0,0.,12.0,0.,12.0
1979-07-14 21:51:17.750 ,3,0,0.,12.0,0.,12.0,0.,12.0,0.,12.0
1979-07-14 21:51:29.750 ,3,0,0.,12.0,0.,12.0,0.,12.0,0.,12.0
1979-07-14 21:51:41.750 ,3,0,0.,12.0,0.,12.0,0.,12.0,0.,12.0
1979-07-14 21:51:53.750 ,3,0,0.,12.0,0.,12.0,0.,12.0,0.,12.0
1979-07-14 21:52:05.750 ,4,0,0.,12.0,0.,12.0,0.,12.0,0.,12.0
1979-07-14 21:52:17.750 ,4,0,0.,12.0,0.,12.0,0.,12.0,0.,12.0
1979-07-14 21:52:29.750 ,4,0,0.,12.0,0.,12.0,0.,12.0,0.,12.0
1979-07-14 21:52:41.750 ,4,0,0.,12.0,0.,12.0,0.,12.0,0.,12.0
1979-07-14 21:52:53.750 ,5,0,1.,12.0,0.,12.0,0.,12.0,0.,12.0
1979-07-14 21:53:05.750 ,5,0,0.,12.0,0.,12.0,0.,12.0,0.,12.0
1979-07-14 21:53:17.750 ,5,0,0.,12.0,0.,12.0,0.,12.0,0.,12.0
1979-07-14 21:53:29.750 ,5,0,0.,12.0,0.,12.0,0.,12.0,0.,12.0
1979-07-14 21:53:41.750 ,6,0,0.,12.0,0.,12.0,0.,12.0,0.,12.0
1979-07-14 21:53:53.750 ,6,0,0.,12.0,0.,12.0,0.,12.0,0.,12.0
1979-07-14 21:54:05.750 ,6,0,0.,12.0,0.,12.0,0.,12.0,0.,12.0
1979-07-14 21:54:17.750 ,6,0,0.,12.0,0.,12.0,0.,12.0,0.,12.0
1979-07-14 21:54:29.750 ,7,0,0.,12.0,0.,12.0,0.,12.0,0.,12.0
1979-07-14 21:54:41.750 ,7,0,0.,12.0,0.,12.0,0.,12.0,0.,12.0
1979-07-14 21:54:53.750 ,7,0,0.,12.0,0.,12.0,0.,12.0,0.,12.0
1979-07-14 21:55:05.750 ,7,0,0.,12.0,0.,12.0,0.,12.0,0.,12.0
1979-07-14 21:55:17.750 ,7,0,0.,12.0,0.,12.0,0.,12.0,0.,12.0
1979-07-14 21:55:29.750 ,7,0,0.,12.0,0.,12.0,0.,12.0,0.,12.0
1979-07-14 21:55:41.750 ,7,0,0.,12.0,0.,12.0,0.,12.0,0.,12.0
1979-07-14 21:55:53.750 ,7,0,0.,12.0,0.,12.0,0.,12.0,0.,12.0
1979-07-14 21:56:05.750 ,6,0,0.,12.0,0.,12.0,0.,12.0,0.,12.0
1979-07-14 21:56:17.750 ,6,0,0.,12.0,0.,12.0,0.,12.0,0.,12.0
1979-07-14 21:56:29.750 ,6,0,0.,12.0,0.,12.0,0.,12.0,0.,12.0
1979-07-14 21:56:41.750 ,6,0,0.,12.0,0.,12.0,0.,12.0,0.,12.0
1979-07-14 21:56:53.750 ,5,0,0.,12.0,0.,12.0,0.,12.0,0.,12.0
1979-07-14 21:57:05.750 ,5,0,0.,12.0,0.,12.0,0.,12.0,0.,12.0
1979-07-14 21:57:17.750 ,5,0,0.,12.0,0.,12.0,0.,12.0,0.,12.0
1979-07-14 21:57:29.750 ,5,0,0.,12.0,0.,12.0,0.,12.0,0.,12.0
1979-07-14 21:57:41.750 ,4,0,0.,12.0,0.,12.0,0.,12.0,0.,12.0
1979-07-14 21:57:53.750 ,4,0,0.,12.0,0.,12.0,0.,12.0,0.,12.0
1979-07-14 21:58:05.750 ,4,0,0.,12.0,0.,12.0,0.,12.0,0.,12.0
1979-07-14 21:58:17.750 ,4,0,0.,12.0,0.,12.0,0.,12.0,0.,12.0
1979-07-14 21:58:29.750 ,3,0,0.,12.0,0.,12.0,0.,12.0,0.,12.0
1979-07-14 21:58:41.750 ,3,0,0.,12.0,0.,12.0,0.,12.0,0.,12.0
1979-07-14 21:58:53.750 ,3,0,0.,12.0,0.,12.0,0.,12.0,0.,12.0
1979-07-14 21:59:05.750 ,3,0,0.,12.0,0.,12.0,0.,12.0,0.,12.0
1979-07-14 21:59:17.750 ,2,0,0.,12.0,0.,12.0,0.,12.0,0.,12.0
1979-07-14 21:59:29.750 ,2,0,0.,12.0,0.,12.0,0.,12.0,0.,12.0
1979-07-14 21:59:41.750 ,2,0,0.,12.0,0.,12.0,0.,12.0,0.,12.0
1979-07-14 21:59:53.750 ,2,0,0.,12.0,0.,12.0,0.,12.0,0.,12.0
1979-07-14 22:00:05.750 ,1,0,0.,12.0,0.,12.0,0.,12.0,0.,12.0
1979-07-14 22:00:17.750 ,1,0,0.,12.0,0.,12.0,0.,12.0,0.,12.0
1979-07-14 22:00:29.750 ,1,0,0.,12.0,0.,12.0,0.,12.0,0.,12.0
1979-07-14 22:00:41.750 ,1,0,0.,12.0,0.,12.0,0.,12.0,0.,12.0
1979-07-14 22:00:53.750 ,0,0,0.,12.0,0.,12.0,0.,12.0,0.,12.0
1979-07-14 22:01:05.750 ,0,0,0.,12.0,0.,12.0,0.,12.0,0.,12.0
1979-07-14 22:01:17.750 ,0,0,0.,12.0,0.,12.0,0.,12.0,0.,12.0
1979-07-14 22:01:29.750 ,0,0,0.,12.0,0.,12.0,0.,12.0,0.,12.0
1979-07-14 22:01:41.750 ,0,0,0.,12.0,0.,12.0,0.,12.0,0.,12.0
1979-07-14 22:01:53.750 ,0,0,0.,12.0,0.,12.0,0.,12.0,0.,12.0
1979-07-14 22:02:05.750 ,0,0,0.,12.0,0.,12.0,0.,12.0,0.,12.0
1979-07-14 22:02:17.750 ,0,0,0.,12.0,0.,12.0,0.,12.0,0.,12.0
1979-07-14 22:02:29.750 ,1,0,0.,12.0,0.,12.0,0.,12.0,0.,12.0
1979-07-14 22:02:41.750 ,1,0,0.,12.0,0.,12.0,0.,12.0,0.,12.0
1979-07-14 22:02:53.750 ,1,0,0.,12.0,0.,12.0,0.,12.0,0.,12.0
1979-07-14 22:03:05.750 ,1,0,0.,12.0,0.,12.0,0.,12.0,0.,12.0
1979-07-14 22:03:17.750 ,2,0,0.,12.0,0.,12.0,0.,12.0,0.,12.0
1979-07-14 22:03:29.750 ,2,0,0.,12.0,0.,12.0,0.,12.0,0.,12.0
1979-07-14 22:03:41.750 ,2,0,0.,12.0,0.,12.0,0.,12.0,0.,12.0
1979-07-14 22:03:53.750 ,2,0,0.,12.0,0.,12.0,0.,12.0,0.,12.0
1979-07-14 22:04:05.750 ,3,0,0.,12.0,0.,12.0,0.,12.0,0.,12.0
1979-07-14 22:04:17.750 ,3,0,0.,12.0,0.,12.0,0.,12.0,0.,12.0
1979-07-14 22:04:29.750 ,3,0,0.,12.0,0.,12.0,0.,12.0,0.,12.0
1979-07-14 22:04:41.750 ,3,0,0.,12.0,0.,12.0,0.,12.0,0.,12.0
1979-07-14 22:04:53.750 ,4,0,0.,12.0,0.,12.0,0.,12.0,0.,12.0
1979-07-14 22:05:05.750 ,4,0,0.,12.0,0.,12.0,0.,12.0,0.,12.0
1979-07-14 22:05:17.750 ,4,0,0.,12.0,0.,12.0,0.,12.0,0.,12.0
1979-07-14 22:05:29.750 ,4,0,0.,12.0,0.,12.0,0.,12.0,0.,12.0
1979-07-14 22:05:41.750 ,5,0,0.,12.0,0.,12.0,0.,12.0,0.,12.0
1979-07-14 22:05:53.750 ,5,0,0.,12.0,0.,12.0,0.,12.0,0.,12.0
1979-07-14 22:06:05.750 ,5,0,0.,12.0,0.,12.0,0.,12.0,0.,12.0
1979-07-14 22:06:17.750 ,5,0,0.,12.0,0.,12.0,0.,12.0,0.,12.0
1979-07-14 22:06:29.750 ,6,0,0.,12.0,0.,12.0,0.,12.0,0.,12.0
1979-07-14 22:06:41.750 ,6,0,0.,12.0,0.,12.0,0.,12.0,0.,12.0
1979-07-14 22:06:53.750 ,6,0,0.,12.0,0.,12.0,0.,12.0,0.,12.0
1979-07-14 22:07:05.750 ,6,0,0.,12.0,0.,12.0,0.,12.0,0.,12.0
1979-07-14 22:07:17.750 ,7,0,0.,12.0,0.,12.0,0.,12.0,0.,12.0
1979-07-14 22:07:29.750 ,7,0,0.,12.0,0.,12.0,0.,12.0,0.,12.0
1979-07-14 22:07:41.750 ,7,0,0.,12.0,0.,12.0,0.,12.0,0.,12.0
1979-07-14 22:07:53.750 ,7,0,0.,12.0,0.,12.0,0.,12.0,0.,12.0
1979-07-14 22:08:05.750 ,7,0,0.,12.0,0.,12.0,0.,12.0,0.,12.0
1979-07-14 22:08:17.750 ,7,0,0.,12.0,0.,12.0,0.,12.0,0.,12.0
1979-07-14 22:08:29.750 ,7,0,0.,12.0,0.,12.0,0.,12.0,0.,12.0
1979-07-14 22:08:41.750 ,7,0,0.,12.0,0.,12.0,0.,12.0,0.,12.0
1979-07-14 22:08:53.750 ,6,0,0.,12.0,0.,12.0,0.,12.0,0.,12.0
1979-07-14 22:09:05.750 ,6,0,0.,12.0,0.,12.0,0.,12.0,0.,12.0
1979-07-14 22:09:17.750 ,6,0,0.,12.0,0.,12.0,0.,12.0,0.,12.0
1979-07-14 22:09:29.750 ,6,0,0.,12.0,0.,12.0,0.,12.0,0.,12.0
1979-07-14 22:09:41.750 ,5,0,0.,12.0,0.,12.0,0.,12.0,0.,12.0
1979-07-14 22:09:53.750 ,5,0,1.,12.0,0.,12.0,0.,12.0,0.,12.0
1979-07-14 22:10:05.750 ,5,0,0.,12.0,0.,12.0,0.,12.0,0.,12.0
1979-07-14 22:10:17.750 ,5,0,0.,12.0,0.,12.0,0.,12.0,0.,12.0
1979-07-14 22:10:29.750 ,4,0,0.,12.0,0.,12.0,0.,12.0,0.,12.0
1979-07-14 22:10:41.750 ,4,0,0.,12.0,0.,12.0,0.,12.0,0.,12.0
1979-07-14 22:10:53.750 ,4,0,0.,12.0,0.,12.0,0.,12.0,0.,12.0
1979-07-14 22:11:05.750 ,4,0,0.,12.0,0.,12.0,0.,12.0,0.,12.0
1979-07-14 22:11:17.750 ,3,0,0.,12.0,0.,12.0,0.,12.0,1.,12.0
1979-07-14 22:11:29.750 ,3,0,0.,12.0,0.,12.0,0.,12.0,0.,12.0
1979-07-14 22:11:41.750 ,3,0,0.,12.0,0.,12.0,0.,12.0,0.,12.0
1979-07-14 22:11:53.750 ,3,0,0.,12.0,0.,12.0,0.,12.0,0.,12.0
1979-07-14 22:12:05.750 ,2,0,0.,12.0,0.,12.0,0.,12.0,0.,12.0
1979-07-14 22:12:17.750 ,2,0,0.,12.0,0.,12.0,0.,12.0,0.,12.0
1979-07-14 22:12:29.750 ,2,0,0.,12.0,0.,12.0,0.,12.0,0.,12.0
1979-07-14 22:12:41.750 ,2,0,0.,12.0,0.,12.0,0.,12.0,0.,12.0
1979-07-14 22:12:53.750 ,1,0,0.,12.0,0.,12.0,0.,12.0,0.,12.0
1979-07-14 22:13:05.750 ,1,0,0.,12.0,0.,12.0,0.,12.0,0.,12.0
1979-07-14 22:13:17.750 ,1,0,0.,12.0,0.,12.0,0.,12.0,0.,12.0
1979-07-14 22:13:29.750 ,1,0,0.,12.0,0.,12.0,0.,12.0,0.,12.0
1979-07-14 22:13:41.750 ,0,0,0.,12.0,0.,12.0,0.,12.0,0.,12.0
1979-07-14 22:13:53.750 ,0,0,0.,12.0,0.,12.0,0.,12.0,0.,12.0
1979-07-14 22:14:05.750 ,0,0,0.,12.0,0.,12.0,0.,12.0,0.,12.0
1979-07-14 22:14:17.750 ,0,0,0.,12.0,0.,12.0,0.,12.0,0.,12.0
1979-07-14 22:14:29.750 ,0,0,0.,12.0,0.,12.0,0.,12.0,0.,12.0
1979-07-14 22:14:41.750 ,0,0,0.,12.0,0.,12.0,0.,12.0,0.,12.0
1979-07-14 22:14:53.750 ,0,0,0.,12.0,0.,12.0,0.,12.0,0.,12.0
1979-07-14 22:15:05.750 ,0,0,0.,12.0,0.,12.0,0.,12.0,0.,12.0
1979-07-14 22:15:17.750 ,1,0,0.,12.0,0.,12.0,0.,12.0,0.,12.0
1979-07-14 22:15:29.750 ,1,0,0.,12.0,0.,12.0,0.,12.0,0.,12.0
1979-07-14 22:15:41.750 ,1,0,0.,12.0,0.,12.0,0.,12.0,0.,12.0
1979-07-14 22:15:53.750 ,1,0,0.,12.0,0.,12.0,0.,12.0,0.,12.0
1979-07-14 22:16:05.750 ,2,0,0.,12.0,0.,12.0,0.,12.0,0.,12.0
1979-07-14 22:16:17.750 ,2,0,0.,12.0,0.,12.0,0.,12.0,0.,12.0
1979-07-14 22:16:29.750 ,2,0,0.,12.0,0.,12.0,0.,12.0,0.,12.0
1979-07-14 22:16:41.750 ,2,0,0.,12.0,0.,12.0,0.,12.0,0.,12.0
1979-07-14 22:16:53.750 ,3,0,0.,12.0,0.,12.0,0.,12.0,0.,12.0
1979-07-14 22:17:05.750 ,3,0,0.,12.0,0.,12.0,0.,12.0,0.,12.0
1979-07-14 22:17:17.750 ,3,0,0.,12.0,0.,12.0,0.,12.0,0.,12.0
1979-07-14 22:17:29.750 ,3,0,0.,12.0,0.,12.0,0.,12.0,0.,12.0
1979-07-14 22:17:41.750 ,4,0,0.,12.0,0.,12.0,0.,12.0,0.,12.0
1979-07-14 22:17:53.750 ,4,0,1.,12.0,0.,12.0,0.,12.0,0.,12.0
1979-07-14 22:18:05.750 ,4,0,1.,12.0,0.,12.0,0.,12.0,0.,12.0
1979-07-14 22:18:17.750 ,4,0,1.,12.0,0.,12.0,0.,12.0,0.,12.0
1979-07-14 22:19:17.750 ,0,0,0.,12.0,0.,12.0,0.,12.0,0.,12.0
1979-07-14 22:19:29.750 ,0,0,0.,12.0,0.,12.0,0.,12.0,0.,12.0
1979-07-14 22:19:41.750 ,0,0,0.,12.0,0.,12.0,0.,12.0,0.,12.0
1979-07-14 22:19:53.750 ,0,0,0.,12.0,0.,12.0,0.,12.0,0.,12.0